This demonstration page uses our WeatherBlox Daily Observations layout. Learn more.

Left ArrowRight Arrow

39.29038, -76.61219

Hourly Observations for May 19, 2020

Temp ( °F °C ) Dew Point ( °F °C ) Humidity (%) Winds ( mph kmh ) Pressure ( in mb ) Visibility ( mi km ) Precip ( " mm )
12:54 am 00:54 undefined 62 16.7 45 7.2 54 54 undefined N/A 30.06 1018 N/A N/A
1:54 am 01:54 undefined 61 16.1 45 7.2 56 56 undefined N/A 30.06 1018 N/A N/A
2:54 am 02:54 undefined 59 15 46 7.8 62 62 undefined N/A 30.07 1018 N/A N/A
3:54 am 03:54 undefined 59 15 45 7.2 60 60 undefined N/A 30.07 1018 N/A N/A
4:54 am 04:54 undefined 59 15 46 7.8 62 62 undefined N/A 30.08 1019 N/A N/A
5:54 am 05:54 undefined 58 14.4 46 7.8 65 65 undefined N/A 30.09 1019 N/A N/A
6:54 am 06:54 undefined 58 14.4 47 8.3 67 67 undefined N/A 30.11 1020 N/A N/A
7:54 am 07:54 undefined 59 15 48 8.9 67 67 undefined N/A 30.13 1020 N/A N/A
8:54 am 08:54 undefined 61 16.1 47 8.3 60 60 undefined N/A 30.14 1021 N/A N/A
9:54 am 09:54 undefined 63 17.2 41 5 45 45 undefined N/A 30.17 1022 N/A N/A
10:54 am 10:54 undefined 65 18.3 41 5 42 42 undefined N/A 30.18 1022 N/A N/A
11:54 am 11:54 undefined 67 19.4 40 4.4 37 37 undefined N/A 30.19 1022 N/A N/A
12:54 pm 12:54 undefined 67 19.4 34 1.1 30 30 undefined N/A 30.19 1023 N/A N/A
1:54 pm 13:54 undefined 68 20 34 1.1 28 28 undefined N/A 30.19 1022 N/A N/A
2:54 pm 14:54 undefined 68 20 35 1.7 30 30 undefined N/A 30.20 1023 N/A N/A
3:54 pm 15:54 undefined 67 19.4 34 1.1 30 30 undefined N/A 30.21 1023 N/A N/A
4:54 pm 16:54 undefined 65 18.3 33 0.6 31 31 undefined N/A 30.22 1023 N/A N/A
5:54 pm 17:54 undefined 63 17.2 32 undefined 31 31 undefined N/A 30.23 1024 N/A N/A
6:54 pm 18:54 undefined 63 17.2 33 0.6 33 33 undefined N/A 30.24 1024 N/A N/A
7:54 pm 19:54 undefined 61 16.1 32 undefined 34 34 undefined N/A 30.26 1025 N/A N/A
8:54 pm 20:54 undefined 60 15.6 32 undefined 35 35 undefined N/A 30.28 1026 N/A N/A
9:54 pm 21:54 undefined 58 14.4 31 -0.6 36 36 undefined N/A 30.31 1026 N/A N/A
10:54 pm 22:54 undefined 57 13.9 32 undefined 39 39 undefined N/A 30.31 1027 N/A N/A
11:54 pm 23:54 undefined 56 13.3 32 undefined 40 40 undefined N/A 30.31 1027 N/A N/A

Powered by AerisWeather